Miscellaneous Local Product
Issued by NWS Hastings, NE

Home | Current Version | Previous Version | Text Only | Print | Product List | Glossary Off
Versions: 1 2 3 4 5 6 7 8 9 10 11 12 13 14 15 16 17 18 19 20 21 22 23 24 25 26 27 28 29 30 31 32 33 34 35 36 37 38 39 40 41 42 43 44 45 46 47 48 49 50

000
AXUS43 KGID 291902
MISGRI

GID CWA HOURLY WEATHER ROUNDUP
NATIONAL WEATHER SERVICE HASTINGS NE
200 PM CDT WED JUL 29 2015

NOTE: "FAIR" INDICATES FEW OR NO CLOUDS BELOW 12,000 FEET WITH NO
SIGNIFICANT WEATHER AND/OR OBSTRUCTIONS TO VISIBILITY.

...SOUTH CENTRAL NEBRASKA...

CITY           SKY/WX    TMP DP  RH WIND       PRES   REMARKS
GRAND ISLAND   SUNNY     81  47  30 VRB3      30.23S
HASTINGS       MOSUNNY   81  56  42 NE8       30.23R
KEARNEY        PTSUNNY   79  48  34 SE6       30.25R
ORD            SUNNY     83  45  26 W8        30.22S
YORK           MOSUNNY   79  55  44 N6        30.21F
AURORA         MOSUNNY   80  54  40 NE6       30.22S
LEXINGTON      PTSUNNY   78  51  38 NE3       30.26S
HOLDREGE       CLOUDY    77  48  36 E6        30.27R
HEBRON         PTSUNNY   83  50  32 NE13      30.17F

...NEBRASKA PANHANDLE...

CITY           SKY/WX    TMP DP  RH WIND       PRES   REMARKS
CHADRON        SUNNY     80  43  26 E3        30.25F
ALLIANCE       SUNNY     80  45  28 S15       30.28F
SCOTTSBLUFF    SUNNY     79  47  32 E9        30.27F
SIDNEY         SUNNY     81  47  30 S17G25    30.31S

...WESTERN AND NORTH CENTRAL NEBRASKA...

CITY           SKY/WX    TMP DP  RH WIND       PRES   REMARKS
VALENTINE      SUNNY     85  37  18 W10G23    30.22F
AINSWORTH      SUNNY     83  40  21 W12       30.24S
ONEILL         SUNNY     83  46  27 W12       30.21F
BROKEN BOW     MOSUNNY   82  50  32 W8        30.25F
IMPERIAL       SUNNY     81  47  30 SE16      30.29F
NORTH PLATTE   MOSUNNY   80  52  37 SE8       30.27F
MCCOOK         CLOUDY    77  52  41 VRB3      30.28S

...EASTERN NEBRASKA...

CITY           SKY/WX    TMP DP  RH WIND       PRES   REMARKS
NORFOLK        SUNNY     83  49  30 W8        30.18F
SO SIOUX CITY  SUNNY     83  56  39 W13G18    30.14F
TEKAMAH        SUNNY     83  59  44 NW10      30.16S
COLUMBUS       SUNNY     82  52  34 W6        30.19F
ALBION         SUNNY     83  39  21 W6        30.20F
OMAHA EPPLEY   MOSUNNY   85  52  32 W10       30.16S
OFFUTT AFB     MOSUNNY   85  46  25 NW10      30.16S
MILLARD        MOSUNNY   84  51  32 NW9       30.17S
LINCOLN        MOSUNNY   86  50  28 N12       30.18F
NEBRASKA CITY  SUNNY     82  50  33 N6        30.17F
BEATRICE       MOSUNNY   82  58  42 NE8       30.17S
FALLS CITY     PTSUNNY   82  65  56 NE7       30.15F

...NORTHERN KANSAS...

CITY           SKY/WX    TMP DP  RH WIND       PRES   REMARKS
GOODLAND       MOSUNNY   79  44  28 SE12      30.31F
HILL CITY      PTSUNNY   79  54  41 VRB3      30.26R
NORTON         MOCLDY    79  46  31 E5        30.26R
PHILLIPSBURG   PTSUNNY   86  50  28 NE10      30.24R
SMITH CENTER   SUNNY     82  50  32 NE10G18   30.22R
HAYS           CLOUDY    75  55  50 NE8       30.24R
RUSSELL        CLOUDY    77  60  55 NE12      30.21R
CONCORDIA      CLOUDY    78  59  51 E9        30.19R
SALINA         CLOUDY    76  67  73 E5        30.17R
TOPEKA         CLOUDY    81  69  67 NE6       30.14F



USA.gov is the U.S. government's official web portal to all federal, state and local government web resources and services.